Notices

What's New in latest Release from April 7th, 2021:

- Updated Glossary, including Speed of Maximum Gust, and Total Hourly Precipitation

- Updated national and regional climate services offices contacts and prices information

- Addition of station inventory lists for 1981-2010, 1971-2000, and 1961-1990 Normals.

If you haven't already, please take our survey and provide feedback about our website: https://eccc.sondage-survey.ca/f/LanguageSelection.aspx?s=442ca660-fcf1-47c0-95a9-59707d6fd709

Hourly Data Report for September 26, 2015

IQALUIT CLIMATE
NUNAVUT

63°44'50.000" N
68°32'40.000" W
33.50 m
2402592
71321
XFB

Download Data

Hourly Data (September 2015)
Hourly Data Report for September 26, 2015
TIME
LST
Temp Definition
°C
Dew Point Definition
°C
Rel Hum Definition
%
Precip. Amount Definition
mm

Wind Dir Definition
10's deg

Wind Spd Definition
km/h
Visibility Definition
km
Stn Press Definition
kPa
Hmdx Definition


Wind Chill Definition


Weather Definition


00:00 -1.5 -4.4 81 0.0 32 27   101.73   -8 LegendNANA
01:00 -1.4 -4.4 80 0.0 31 26   101.73   -8 LegendNANA
02:00 -1.5 -4.3 81 0.0 33 28   101.71   -8 LegendNANA
03:00 -1.6 -4.5 81 0.0 32 22   101.73   -8 LegendNANA
04:00 -1.8 -4.4 82 0.0 32 23   101.75   -8 LegendNANA
05:00 -1.8 -4.5 81 0.0 32 18   101.74   -7 LegendNANA
06:00 -1.7 -5.5 75 0.0 32 20   101.74   -7 LegendNANA
07:00 -1.4 -5.7 72 0.0 32 22   101.69   -7 LegendNANA
08:00 -1.0 -6.2 68 0.0 31 22   101.64   -7 LegendNANA
09:00 -0.9 -6.5 66 0.0 31 24   101.60   -7 LegendNANA
10:00 -0.8 -5.7 69 0.0 32 20   101.54   -6 LegendNANA
11:00 -1.0 -3.9 81 0.0 33 17   101.53   -6 LegendNANA
12:00 -0.8 -5.4 71 0.0 32 17   101.46   -6 LegendNANA
13:00 -0.5 -6.0 66 0.0 33 13   101.37   -5 LegendNANA
14:00 -0.7 -6.7 64 0.0 34 7   101.26   -3 LegendNANA
15:00 -0.8 -9.3 53 0.0 2 7   101.18   -3 LegendNANA
16:00 -1.0 -9.3 53 0.0 15 8   101.08   -4 LegendNANA
17:00 -1.3 -8.6 58 0.0 18 8   100.99   -4 LegendNANA
18:00 -1.4 -8.4 59 0.0 16 12   100.90   -5 LegendNANA
19:00 -1.9 -7.7 64 0.0 18 15   100.75   -7 LegendNANA
20:00 -1.8 -7.5 65 0.0 16 17   100.59   -7 LegendNANA
21:00 -1.8 -7.3 66 0.0 15 25   100.47   -8 LegendNANA
22:00 -1.8 -7.0 68 0.0 15 26   100.39   -8 LegendNANA
23:00 -1.8 -6.5 70 0.0 15 28   100.27   -9 LegendNANA

Notes on Data Quality.

Legend

  • E = Estimated
  • M = Missing
  • NA = Not Available*
  • [empty] = Indicates an unobserved value
Date modified: